V35KX 63.70 55.32790 -131.6150 0.000 0.000 20200122_1130 MesoWest V35K Ketchikan AK US USARRAY current weather conditions

sailwx.info

Wind from 101 at 2 knots gusting 3

Air temperature 5.4° C
Dewpoint 2.1° C

Last reported at 2020-Jan-22 12:30 UTC.
Time now 2020-Jan-22 13:32 UTC

Location: N 55°20' W 131°37'.
View on Google Maps.

See reports from other nearby stations

  
Tides and Currents Weather Stations Pressure Air Temp Water Temp Dewpoint Dewpoint Depression Visibility Wind Speed Wind Dir Waves Ship Positions
date/time (UTC)wind fromknots sea level pressurealtimeterstation pressurevisibilityair tempwater tempwave heightnotes
2020-Jan-22 12:30 101 2 gusting 3 5.4
2020-Jan-22 12:25
2020-Jan-22 12:10 111
2020-Jan-22 11:55
2020-Jan-22 11:30 061 2 gusting 4 5.3
2020-Jan-22 11:00 106 2 gusting 4 5.3
2020-Jan-22 10:55
2020-Jan-22 10:30 139 2 gusting 4 5.4
2020-Jan-22 10:25
2020-Jan-22 10:05 095
2020-Jan-22 09:55
2020-Jan-22 09:30 111 2 gusting 3 5.0
2020-Jan-22 09:25
2020-Jan-22 09:00 112 2 gusting 3 4.9
2020-Jan-22 08:30 078 2 gusting 3 5.0
2020-Jan-22 08:25
2020-Jan-22 08:05 088
2020-Jan-22 07:55
2020-Jan-22 07:30 095 2 gusting 4 4.6
2020-Jan-22 07:20
2020-Jan-22 07:05 080
2020-Jan-22 06:55
2020-Jan-22 06:30 132 1 gusting 2 4.0
2020-Jan-22 06:25
2020-Jan-22 06:05 096
2020-Jan-22 05:55
2020-Jan-22 05:30 130 0 gusting 1 4.0
2020-Jan-22 05:25
2020-Jan-22 05:05 147
2020-Jan-22 04:55
2020-Jan-22 04:30 068 0 gusting 0 3.4
2020-Jan-22 04:25
2020-Jan-22 04:05 093
2020-Jan-22 03:50
2020-Jan-22 03:30 124 1 gusting 3 5.5
2020-Jan-22 03:05 085
2020-Jan-22 02:55
2020-Jan-22 02:30 110 1 gusting 3 5.5
2020-Jan-22 02:05 093
2020-Jan-22 01:55
2020-Jan-22 01:30 095 2 gusting 4 5.6
2020-Jan-22 01:25
2020-Jan-22 01:05 089
2020-Jan-22 00:55
2020-Jan-22 00:30 106 1 gusting 3 5.6
2020-Jan-22 00:25
2020-Jan-22 00:05 119
2020-Jan-21 23:55
2020-Jan-21 23:35 343
2020-Jan-21 23:25
2020-Jan-21 23:00 266 1 gusting 3 4.3
2020-Jan-21 22:55
2020-Jan-21 22:35 108
2020-Jan-21 22:20
2020-Jan-21 21:50 305 0 gusting 1 3.9
2020-Jan-21 21:45
2020-Jan-21 21:35 157
2020-Jan-21 21:30
2020-Jan-21 21:05 266
2020-Jan-21 20:55
2020-Jan-21 20:35 052
2020-Jan-21 19:25 345 0 gusting 1 3.0
2020-Jan-21 19:05
2020-Jan-21 19:00
2020-Jan-21 18:35 3.0
2020-Jan-21 18:25
2020-Jan-21 18:05 064 1 gusting 3 2.6
2020-Jan-21 17:55
2020-Jan-21 17:35 058 1 gusting 2 2.3
2020-Jan-21 17:25
2020-Jan-21 17:05 199
2020-Jan-21 16:55
2020-Jan-21 16:35 115 0 gusting 1 1.2
2020-Jan-21 16:25
2020-Jan-21 16:05 050 0 gusting 0 1.0
2020-Jan-21 15:50
2020-Jan-21 15:35 121 0 gusting 0 1.0
2020-Jan-21 15:25
2020-Jan-21 15:05 079 0 gusting 1 1.1
2020-Jan-21 14:55
2020-Jan-21 14:35 068 0 gusting 1 1.4
2020-Jan-21 14:20
2020-Jan-21 14:05 2.0
2020-Jan-21 13:55
2020-Jan-21 13:35 033 1 gusting 3 1.7
2020-Jan-21 13:20
2020-Jan-21 13:05 295 1 gusting 2 2.0
2020-Jan-21 12:55
2020-Jan-21 12:35 072 1 gusting 2 2.6
2020-Jan-21 12:25
2020-Jan-21 12:05 2.7
2020-Jan-21 11:50
2020-Jan-21 11:35 076 1 gusting 2 2.8
2020-Jan-21 11:25
2020-Jan-21 11:05 2.9
2020-Jan-21 10:50
2020-Jan-21 10:35 349 1 gusting 2 2.8
2020-Jan-21 10:25
2020-Jan-21 10:10 030
2020-Jan-21 09:55
2020-Jan-21 09:35 054 1 gusting 3 2.5
2020-Jan-21 09:25
2020-Jan-21 09:05 3.0
2020-Jan-21 08:55
2020-Jan-21 08:35 175 1 gusting 4 2.0
2020-Jan-21 08:30
2020-Jan-21 08:05 2.7
2020-Jan-21 08:00
2020-Jan-21 07:35 3.2
2020-Jan-21 07:25
2020-Jan-21 07:05 017 1 gusting 2 3.3
2020-Jan-21 06:55
2020-Jan-21 06:35 062 1 gusting 2 2.7
2020-Jan-21 06:30
2020-Jan-21 06:05 052 0 gusting 1 3.0
2020-Jan-21 05:55
2020-Jan-21 05:35 320 0 gusting 1 2.6
2020-Jan-21 05:20
2020-Jan-21 05:00 128 0 gusting 1 3.0
2020-Jan-21 04:50
2020-Jan-21 04:35 083 1 gusting 2 3.5
2020-Jan-21 04:25
2020-Jan-21 04:05 354 0 gusting 3 3.5
2020-Jan-21 03:50
2020-Jan-21 03:35 3.5
2020-Jan-21 03:25
2020-Jan-21 03:00 092 0 gusting 2 3.6
2020-Jan-21 02:50
2020-Jan-21 02:35 134 1 gusting 2 3.9
2020-Jan-21 02:25
2020-Jan-21 02:00 088 1 gusting 2 3.8
2020-Jan-21 01:50
2020-Jan-21 01:35 130 2 gusting 3 3.9
2020-Jan-21 01:25
2020-Jan-21 01:00 117 0 gusting 1 3.1
2020-Jan-21 00:35 116
2020-Jan-21 00:20
2020-Jan-21 00:10 3.8
2020-Jan-20 23:55
2020-Jan-20 23:30 102 1 gusting 1 2.5
2020-Jan-20 23:25
2020-Jan-20 23:05 083
2020-Jan-20 23:00 083 0 gusting 1 3.3
2020-Jan-20 22:35 3.6
2020-Jan-20 22:25 181 0 gusting 2 3.7
2020-Jan-20 22:00 119 0 gusting 1 2.8
2020-Jan-20 21:50 073 0 gusting 1 2.5
2020-Jan-20 21:35 081
2020-Jan-20 21:25
2020-Jan-20 21:00 073 0 gusting 0 2.7
2020-Jan-20 20:35 2.5
2020-Jan-20 20:25 347 0 gusting 1 2.9
2020-Jan-20 20:05 047
2020-Jan-20 20:00 102 0 gusting 1 2.7
2020-Jan-20 19:30 027 0 gusting 1 2.8
2020-Jan-20 19:25 060 0 gusting 0 2.9
2020-Jan-20 19:00 114 0 gusting 1 2.0
2020-Jan-20 18:50 083 0 gusting 1 2.2
2020-Jan-20 18:35 087
2020-Jan-20 18:25
2020-Jan-20 18:05 013
2020-Jan-20 18:00
2020-Jan-20 17:35 030
2020-Jan-20 17:25
2020-Jan-20 17:05 057
2020-Jan-20 17:00 054 0 gusting 0 1.6
2020-Jan-20 16:35 103
2020-Jan-20 16:25 107 0 gusting 0 1.9
2020-Jan-20 16:00 205 0 gusting 0 2.3
2020-Jan-20 15:50 069 0 gusting 1 2.3
2020-Jan-20 15:30 072 0 gusting 0 2.1
2020-Jan-20 15:25 075 0 gusting 0 2.2
2020-Jan-20 15:05 162
2020-Jan-20 14:50
2020-Jan-20 14:35 347
2020-Jan-20 14:25 358 0 gusting 1 2.9
2020-Jan-20 14:05 222
2020-Jan-20 13:50 187 0 gusting 1 3.1
2020-Jan-20 13:35 192
2020-Jan-20 13:30 210 0 gusting 2 3.2
2020-Jan-20 13:05 075